User: anonymous   Login
Location: Briis
(48.6240°N, 2.1211°E)
Time: 03:27:25
(UTC+00:00)
Language:

deb Chang Zheng 4 - Orbit

View from above orbital plane
View from above orbital plane
View from above satellite
View from above satellite

Ground track
Ground track

The orbit data is extracted from the following two-line orbital elements,

1 20847U 90081K   20338.04625820  .00005288  00000-0  62355-3 0  9999
2 20847  98.5657 320.7508 0015919 335.1702  24.8743 14.85139283593047
Epoch (UTC): 03 December 2020 01:06:36
Eccentricity: 0.0015919
inclination: 98.5657°
perigee height: 602 km
apogee height: 624 km
right ascension of ascending node: 320.7508°
argument of perigee: 335.1702°
revolutions per day: 14.85139283
mean anomaly at epoch: 24.8743°
orbit number at epoch: 59304

The dashed part of the orbit path shows where the satellite is in the earth's shadow,  

DLR